User: anonymous   Login
Location: Unspecified
(0.0000°N, 0.0000°E)
Time: 23:37:23
(UTC+00:00)
Language:

MOZHAYETS - Orbit

View from above orbital plane
View from above orbital plane
View from above satellite
View from above satellite

Ground track
Ground track

The orbit data is extracted from the following two-line orbital elements,

1 27560U 02054B   18140.61097578 +.00000054 +00000-0 +22081-4 0  9994
2 27560 098.2535 276.3446 0041846 143.0408 278.9781 14.57706954822203
Epoch (UTC): 20 May 2018 14:39:48
Eccentricity: 0.0041846
inclination: 98.2535°
perigee height: 671 km
apogee height: 730 km
right ascension of ascending node: 276.3446°
argument of perigee: 143.0408°
revolutions per day: 14.57706954
mean anomaly at epoch: 278.9781°
orbit number at epoch: 82220

The dashed part of the orbit path shows where the satellite is in the earth's shadow,  

DLR